sat.trackr.live / text

‹ back to catalog

STARLINK-35452

NORAD 66104 · 2025-236U

PAYLOAD ACTIVE UNKNOWN

§ Identity

Operator
Country
US
Launch date
2025-10-19
Launch site
AFWTR
Launch vehicle
Mass (kg)
RCS (m²)

Purposes: comms

External: N2YO · Heavens-Above · Gunter

§ Orbital elements

Epoch: 2026-05-25T04:00:03.998880Z

Period
93.85 min
Inclination
53.1598°
Eccentricity
0.0001135
Mean motion
15.34379458 rev/d
Perigee alt
462.0 km
Apogee alt
463.5 km
Semi-major
6,840.9 km
B*
-4.5794e-5
RAAN
108.6548°
Arg perigee
92.1839°
Mean anomaly
260.4777°
Rev number
585

§ Raw data

STARLINK-354521 66104U 25236U   26145.16671295 -.00001922  00000+0 -45794-4 0  99982 66104  53.1598 108.6548 0001135  92.1839 260.4777 15.34379458  5854

JSON: /api/v1/satellites/66104 · /tle

For live sub-satellite position, see the globe view (requires WebGL).

§ Visibility from observer

Set your observer location to see the next 7 days of passes ≥ 10°. The values pass through the URL so the page stays shareable.

No JS? Fill the form by hand. The geolocation button needs JavaScript.